Cross City, FL

2:00 PM EDT on May 21, 2018 (GMT -0400)
Cross City

Weather History for KCTY - October, 2013

Change the Weather History Date:

Sunday, October 20, 2013

  Actual Average Record
Temperature  
Mean Temperature 75 °F 69 °F  
Max Temperature 85 °F 82 °F 88 °F (1998)
Min Temperature 65 °F 56 °F 43 °F (2011)
Degree Days  
Heating Degree Days 0 1  
Month to date heating degree days 0 10  
Since 1 July heating degree days 0 10  
Cooling Degree Days 10 5  
Month to date cooling degree days 213 152  
Year to date cooling degree days 2712 2494  
Growing Degree Days 24 (Base 50)    
Moisture  
Dew Point 64 °F    
Average Humidity 72    
Maximum Humidity 93    
Minimum Humidity 51    
Precipitation  
Precipitation 0.01 in 0.09 in 1.56 in (2004)
Month to date precipitation 0.26 2.43  
Year to date precipitation 58.20 42.26  
Sea Level Pressure  
Sea Level Pressure 29.95 in    
Wind  
Wind Speed 5 mph (NNE)    
Max Wind Speed 10 mph    
Max Gust Speed 15 mph    
T = Trace of Precipitation, MM = Missing Value Source: NWS Daily Summary

Daily Weather History Graph

Daily Weather History Graph

Search for Another Location

Airport or City:

Astronomy

Oct. 20, 2013 Rise Set
Actual Time 7:37 AM EDT 6:56 PM EDT
Civil Twilight 7:13 AM EDT 7:20 PM EDT
Nautical Twilight 6:45 AM EDT 7:48 PM EDT
Astronomical Twilight 6:17 AM EDT 8:16 PM EDT
Moon 8:12 PM EDT (10/20) 9:06 AM EDT (10/20)
Length of Visible Light 12h 07m
Length of Day
11h 18m
Full, 97% of the Moon is Illuminated
Oct 20
Full
Oct 26
Last Quarter
Nov 3
New
Nov 10
First Quarter
Nov 17
Full

Hourly Weather History & Observations

Time (EDT) Temp. Heat Index Dew Point Humidity Pressure Visibility Wind Dir Wind Speed Gust Speed Precip Events Conditions
12:53 AM 69.1 °F - 66.9 °F 93% 29.93 in - NE 3.5 mph - N/A   Unknown
1:53 AM 69.1 °F - 66.0 °F 90% 29.92 in - North 4.6 mph - N/A   Unknown
2:53 AM 69.1 °F - 64.9 °F 87% 29.92 in - NNE 5.8 mph - N/A   Unknown
3:53 AM 66.9 °F - 64.9 °F 93% 29.91 in - Calm Calm - N/A   Unknown
4:53 AM 66.0 °F - 64.0 °F 93% 29.92 in - North 4.6 mph - N/A   Unknown
5:53 AM 64.9 °F - 63.0 °F 93% 29.92 in - NNE 3.5 mph - N/A   Unknown
6:53 AM 64.9 °F - 62.1 °F 90% 29.94 in - NNE 6.9 mph - 0.01 in   Unknown
7:53 AM 66.0 °F - 61.0 °F 84% 29.96 in - NE 3.5 mph - N/A   Unknown
8:53 AM 68.0 °F - 61.0 °F 78% 29.97 in - NE 6.9 mph - N/A   Unknown
9:53 AM 71.1 °F - 60.1 °F 68% 29.99 in - Variable 5.8 mph - N/A   Unknown
10:53 AM 73.9 °F - 61.0 °F 64% 29.99 in - ENE 5.8 mph - N/A   Unknown
11:53 AM 79.0 °F - 62.1 °F 56% 29.99 in - Variable 4.6 mph - N/A   Unknown
12:53 PM 82.9 °F 84.4 °F 64.0 °F 53% 29.98 in - Variable 5.8 mph - N/A   Unknown
1:53 PM 82.9 °F 84.4 °F 64.0 °F 53% 29.96 in - North 8.1 mph - N/A   Unknown
2:53 PM 84.0 °F 85.8 °F 64.9 °F 53% 29.94 in - NE 5.8 mph - N/A   Unknown
3:53 PM 84.0 °F 86.3 °F 66.0 °F 55% 29.94 in - Variable 4.6 mph - N/A   Unknown
4:53 PM 82.9 °F 84.6 °F 64.9 °F 54% 29.94 in - North 8.1 mph - N/A   Unknown
5:53 PM 80.1 °F 81.9 °F 64.9 °F 60% 29.94 in - North 5.8 mph - N/A   Unknown
6:53 PM 75.9 °F - 64.0 °F 67% 29.95 in - NNE 6.9 mph - N/A   Unknown
7:53 PM 73.9 °F - 63.0 °F 68% 29.96 in - NNE 6.9 mph - N/A   Unknown
8:53 PM 73.9 °F - 63.0 °F 68% 29.98 in - Calm Calm - N/A   Unknown
9:53 PM 73.0 °F - 62.1 °F 68% 29.98 in - NE 3.5 mph - N/A   Unknown
10:53 PM 72.0 °F - 63.0 °F 73% 29.99 in - Calm Calm - N/A   Unknown
11:53 PM 71.1 °F - 64.0 °F 78% 29.99 in - Calm Calm - N/A   Unknown